Location: Newark
(45.5000°N, 11.4167°E)
Time: 14:26:47
(UTC+00:00)

Vanguard 2 - Pass Details

Date: 30 August 2019
Orbit: 554 x 2937 km, 32.9° (Epoch: 17 September)

Event Time Altitude Azimuth Distance (km) Brightness Sun altitude
Rises 11:45:23 0° 244° (WSW) 2,978 10.9 52.9°
Reaches altitude 10° 11:47:45 10° 230° (SW) 2,240 10.6 52.8°
Maximum altitude 11:51:58 25° 175° (S) 1,776 10.6 52.6°
Drops below altitude 10° 11:57:50 10° 124° (SE) 3,220 11.0 52.4°
Sets 12:02:03 0° 113° (ESE) 4,641 11.6 52.1°
